Location: Caltech
(34.1382°N, 118.1253°W)
Time: 18:25:10
(UTC-07:00)

OAO 2 Rocket - Visible Passes

Search period start: 22 April 2018 00:00
Search period end: 02 May 2018 00:00
Orbit: 676 x 747 km, 35.0° (Epoch: 22 April)

Date Brightness Start Highest point End Pass type
(mag) Time Alt. Az. Time Alt. Az. Time Alt. Az.
22 Apr 3.4 20:08:15 10° W 20:13:31 76° SSW 20:18:01 14° ESE visible
22 Apr 4.8 21:53:33 10° W 21:56:59 27° SW 21:56:59 27° SW visible
23 Apr 4.1 20:55:28 10° W 21:00:22 41° SSW 21:02:25 28° SSE visible
24 Apr 3.8 19:57:32 10° W 20:02:41 56° SSW 20:07:43 10° ESE visible
24 Apr 5.3 21:43:31 10° WSW 21:46:51 18° SW 21:46:51 18° SW visible
25 Apr 4.8 20:45:03 10° W 20:49:23 26° SSW 20:52:21 16° SSE visible
27 Apr 5.6 20:35:11 10° WSW 20:38:19 16° SW 20:41:24 10° S visible
